Time,TemperatureF,DewpointF,PressureIn,WindDirection,WindDirectionDegrees,WindSpeedMPH,WindSpeedGustMPH,Humidity,HourlyPrecipIn,Conditions,Clouds,dailyrainin,SoftwareType,DateUTC
2013-01-04 00:02:00,28.0,13.1,30.10,South,190,3.0,17.0,53,0.00,,,0.00,meteohub,2013-01-04 05:02:00,
2013-01-04 00:07:00,28.4,13.5,30.10,SW,235,8.0,17.0,53,0.00,,,0.00,meteohub,2013-01-04 05:07:00,
2013-01-04 00:12:00,28.6,13.3,30.10,West,280,5.0,16.0,52,0.00,,,0.00,meteohub,2013-01-04 05:12:00,
2013-01-04 00:17:00,28.6,13.3,30.10,SW,235,7.0,17.0,52,0.00,,,0.00,meteohub,2013-01-04 05:17:00,
2013-01-04 00:22:00,28.6,13.3,30.10,SW,235,9.0,17.0,52,0.00,,,0.00,meteohub,2013-01-04 05:22:00,
2013-01-04 00:27:00,28.6,13.3,30.10,SSE,168,2.0,17.0,52,0.00,,,0.00,meteohub,2013-01-04 05:27:00,
2013-01-04 00:32:00,28.6,13.3,30.10,North,10,8.0,14.0,52,0.00,,,0.00,meteohub,2013-01-04 05:32:00,
2013-01-04 00:37:00,28.8,13.5,30.10,SW,235,5.0,14.0,52,0.00,,,0.00,meteohub,2013-01-04 05:37:00,
2013-01-04 00:42:00,28.8,13.5,30.10,SSW,212,17.0,17.0,52,0.00,,,0.00,meteohub,2013-01-04 05:42:00,
2013-01-04 00:47:00,28.9,13.5,30.10,WSW,258,3.0,25.0,52,0.00,,,0.00,meteohub,2013-01-04 05:47:00,
2013-01-04 00:52:00,28.8,13.5,30.10,NNE,32,8.0,26.0,52,0.00,,,0.00,meteohub,2013-01-04 05:52:00,
2013-01-04 00:57:00,28.9,13.5,30.07,South,190,9.0,26.0,52,0.00,,,0.00,meteohub,2013-01-04 05:57:00,
2013-01-04 01:02:00,28.8,13.5,30.07,SSE,168,15.0,16.0,52,0.00,,,0.00,meteohub,2013-01-04 06:02:00,
2013-01-04 01:07:00,28.9,13.5,30.07,NE,55,9.0,29.0,52,0.00,,,0.00,meteohub,2013-01-04 06:07:00,
2013-01-04 01:12:00,28.8,13.5,30.10,SW,235,6.0,29.0,52,0.00,,,0.00,meteohub,2013-01-04 06:12:00,
2013-01-04 01:17:00,28.8,13.5,30.10,WSW,258,5.0,29.0,52,0.00,,,0.00,meteohub,2013-01-04 06:17:00,
2013-01-04 01:22:00,28.8,13.5,30.10,North,10,6.0,21.0,52,0.00,,,0.00,meteohub,2013-01-04 06:22:00,
2013-01-04 01:27:00,28.9,13.5,30.07,SSE,168,18.0,18.0,52,0.00,,,0.00,meteohub,2013-01-04 06:27:00,
2013-01-04 01:32:00,28.8,13.5,30.07,SSW,212,12.0,18.0,52,0.00,,,0.00,meteohub,2013-01-04 06:32:00,
2013-01-04 01:37:00,28.8,13.5,30.07,WSW,258,7.0,18.0,52,0.00,,,0.00,meteohub,2013-01-04 06:37:00,
2013-01-04 01:42:00,28.8,13.5,30.10,WNW,302,8.0,18.0,52,0.00,,,0.00,meteohub,2013-01-04 06:42:00,
2013-01-04 01:47:00,28.8,13.5,30.10,WNW,302,3.0,16.0,52,0.00,,,0.00,meteohub,2013-01-04 06:47:00,
2013-01-04 01:57:00,28.6,13.3,30.10,NNW,348,4.0,12.0,52,0.00,,,0.00,meteohub,2013-01-04 06:57:00,
2013-01-04 02:02:00,28.6,13.3,30.10,NNW,348,8.0,11.0,52,0.00,,,0.00,meteohub,2013-01-04 07:02:00,
2013-01-04 02:12:00,28.6,13.3,30.10,SSE,168,11.0,21.0,52,0.00,,,0.00,meteohub,2013-01-04 07:12:00,
2013-01-04 02:17:00,28.6,13.3,30.10,SSW,212,11.0,13.0,52,0.00,,,0.00,meteohub,2013-01-04 07:17:00,
2013-01-04 02:22:00,28.6,13.3,30.10,West,280,12.0,25.0,52,0.00,,,0.00,meteohub,2013-01-04 07:22:00,
2013-01-04 02:27:00,28.4,13.1,30.10,SW,235,8.0,25.0,52,0.00,,,0.00,meteohub,2013-01-04 07:27:00,
2013-01-04 02:32:00,28.4,13.1,30.10,WSW,258,12.0,25.0,52,0.00,,,0.00,meteohub,2013-01-04 07:32:00,
2013-01-04 02:37:00,28.2,12.9,30.10,SSE,168,4.0,30.0,52,0.00,,,0.00,meteohub,2013-01-04 07:37:00,
2013-01-04 02:47:00,28.2,12.9,30.10,NNW,348,7.0,30.0,52,0.00,,,0.00,meteohub,2013-01-04 07:47:00,
2013-01-04 02:52:00,28.2,12.9,30.10,SE,145,5.0,20.0,52,0.00,,,0.00,meteohub,2013-01-04 07:52:00,
2013-01-04 02:57:00,28.0,12.7,30.13,WSW,258,20.0,20.0,52,0.00,,,0.00,meteohub,2013-01-04 07:57:00,
2013-01-04 03:02:00,28.0,12.7,30.13,SE,145,8.0,20.0,52,0.00,,,0.00,meteohub,2013-01-04 08:02:00,
2013-01-04 03:12:00,28.0,12.7,30.13,SW,235,11.0,21.0,52,0.00,,,0.00,meteohub,2013-01-04 08:12:00,
2013-01-04 03:17:00,28.0,12.7,30.13,NNE,32,3.0,21.0,52,0.00,,,0.00,meteohub,2013-01-04 08:17:00,
2013-01-04 03:22:00,27.9,12.6,30.13,NNW,348,7.0,21.0,52,0.00,,,0.00,meteohub,2013-01-04 08:22:00,
2013-01-04 03:27:00,27.7,12.4,30.10,West,280,10.0,15.0,52,0.00,,,0.00,meteohub,2013-01-04 08:27:00,
2013-01-04 03:32:00,27.9,12.6,30.10,WSW,258,7.0,30.0,52,0.00,,,0.00,meteohub,2013-01-04 08:32:00,
2013-01-04 03:37:00,27.7,12.4,30.10,WSW,258,7.0,30.0,52,0.00,,,0.00,meteohub,2013-01-04 08:37:00,
2013-01-04 03:42:00,27.5,12.2,30.10,WSW,258,8.0,30.0,52,0.00,,,0.00,meteohub,2013-01-04 08:42:00,
2013-01-04 03:47:00,27.5,12.2,30.10,WNW,302,8.0,15.0,52,0.00,,,0.00,meteohub,2013-01-04 08:47:00,
2013-01-04 03:52:00,27.5,12.2,30.10,WNW,302,15.0,15.0,52,0.00,,,0.00,meteohub,2013-01-04 08:52:00,
2013-01-04 03:57:00,27.3,12.0,30.13,WSW,258,8.0,16.0,52,0.00,,,0.00,meteohub,2013-01-04 08:57:00,
2013-01-04 04:02:00,27.1,11.8,30.13,NW,325,9.0,16.0,52,0.00,,,0.00,meteohub,2013-01-04 09:02:00,
2013-01-04 04:07:00,27.1,11.8,30.13,NNW,348,6.0,16.0,52,0.00,,,0.00,meteohub,2013-01-04 09:07:00,
2013-01-04 04:12:00,27.1,11.8,30.10,SW,235,4.0,16.0,52,0.00,,,0.00,meteohub,2013-01-04 09:12:00,
2013-01-04 04:17:00,27.0,11.7,30.10,NNE,32,9.0,14.0,52,0.00,,,0.00,meteohub,2013-01-04 09:17:00,
2013-01-04 04:22:00,27.0,11.7,30.10,SW,235,12.0,15.0,52,0.00,,,0.00,meteohub,2013-01-04 09:22:00,
2013-01-04 04:27:00,27.0,11.7,30.13,WNW,302,12.0,16.0,52,0.00,,,0.00,meteohub,2013-01-04 09:27:00,
2013-01-04 04:32:00,27.0,11.7,30.13,SSW,212,15.0,16.0,52,0.00,,,0.00,meteohub,2013-01-04 09:32:00,
2013-01-04 04:37:00,27.0,11.7,30.13,West,280,11.0,17.0,52,0.00,,,0.00,meteohub,2013-01-04 09:37:00,
2013-01-04 04:42:00,26.8,11.5,30.13,WSW,258,10.0,21.0,52,0.00,,,0.00,meteohub,2013-01-04 09:42:00,
2013-01-04 04:47:00,26.8,11.5,30.13,SW,235,9.0,21.0,52,0.00,,,0.00,meteohub,2013-01-04 09:47:00,
2013-01-04 04:52:00,26.8,11.5,30.13,SSE,168,9.0,35.0,52,0.00,,,0.00,meteohub,2013-01-04 09:52:00,
2013-01-04 04:57:00,26.8,12.0,30.13,WSW,258,16.0,35.0,53,0.00,,,0.00,meteohub,2013-01-04 09:57:00,
2013-01-04 05:02:00,26.8,11.5,30.13,SE,145,6.0,25.0,52,0.00,,,0.00,meteohub,2013-01-04 10:02:00,
2013-01-04 05:07:00,26.8,11.5,30.13,NW,325,12.0,25.0,52,0.00,,,0.00,meteohub,2013-01-04 10:07:00,
2013-01-04 05:12:00,26.8,12.0,30.13,WSW,258,13.0,25.0,53,0.00,,,0.00,meteohub,2013-01-04 10:12:00,
2013-01-04 05:17:00,26.8,11.5,30.13,SSW,212,5.0,19.0,52,0.00,,,0.00,meteohub,2013-01-04 10:17:00,
2013-01-04 05:22:00,26.6,11.8,30.13,NW,325,8.0,16.0,53,0.00,,,0.00,meteohub,2013-01-04 10:22:00,
2013-01-04 05:27:00,26.6,11.8,30.13,ENE,78,4.0,17.0,53,0.00,,,0.00,meteohub,2013-01-04 10:27:00,
2013-01-04 05:32:00,26.6,11.8,30.13,NNW,348,20.0,20.0,53,0.00,,,0.00,meteohub,2013-01-04 10:32:00,
2013-01-04 05:37:00,26.6,11.8,30.13,SSW,212,9.0,26.0,53,0.00,,,0.00,meteohub,2013-01-04 10:37:00,
2013-01-04 05:42:00,26.6,11.8,30.10,NNW,348,11.0,26.0,53,0.00,,,0.00,meteohub,2013-01-04 10:42:00,
2013-01-04 05:47:00,26.4,11.7,30.10,WNW,302,8.0,26.0,53,0.00,,,0.00,meteohub,2013-01-04 10:47:00,
2013-01-04 05:52:00,26.4,11.7,30.10,NNE,32,8.0,13.0,53,0.00,,,0.00,meteohub,2013-01-04 10:52:00,
2013-01-04 05:57:00,26.6,11.8,30.10,SSW,212,3.0,17.0,53,0.00,,,0.00,meteohub,2013-01-04 10:57:00,
2013-01-04 06:02:00,26.4,11.7,30.10,SSW,212,11.0,17.0,53,0.00,,,0.00,meteohub,2013-01-04 11:02:00,
2013-01-04 06:07:00,26.6,12.2,30.10,WSW,258,0.0,16.0,54,0.00,,,0.00,meteohub,2013-01-04 11:07:00,
2013-01-04 06:17:00,26.4,12.0,30.10,NNE,32,7.0,17.0,54,0.00,,,0.00,meteohub,2013-01-04 11:17:00,
2013-01-04 06:22:00,26.2,11.5,30.10,NW,325,15.0,17.0,53,0.00,,,0.00,meteohub,2013-01-04 11:22:00,
2013-01-04 06:27:00,26.2,11.8,30.10,SSW,212,6.0,17.0,54,0.00,,,0.00,meteohub,2013-01-04 11:27:00,
2013-01-04 06:32:00,26.1,11.7,30.10,SSE,168,6.0,17.0,54,0.00,,,0.00,meteohub,2013-01-04 11:32:00,
2013-01-04 06:42:00,26.1,11.7,30.13,WSW,258,17.0,21.0,54,0.00,,,0.00,meteohub,2013-01-04 11:42:00,
2013-01-04 06:52:00,26.1,11.7,30.13,WSW,258,9.0,21.0,54,0.00,,,0.00,meteohub,2013-01-04 11:52:00,
2013-01-04 06:57:00,26.1,11.7,30.10,SSW,212,6.0,18.0,54,0.00,,,0.00,meteohub,2013-01-04 11:57:00,
2013-01-04 07:02:00,26.1,11.7,30.10,NNW,348,3.0,18.0,54,0.00,,,0.00,meteohub,2013-01-04 12:02:00,
2013-01-04 07:07:00,26.1,11.7,30.10,SSW,212,5.0,18.0,54,0.00,,,0.00,meteohub,2013-01-04 12:07:00,
2013-01-04 07:12:00,25.9,11.5,30.13,SW,235,6.0,18.0,54,0.00,,,0.00,meteohub,2013-01-04 12:12:00,
2013-01-04 07:17:00,26.1,11.7,30.13,WSW,258,10.0,15.0,54,0.00,,,0.00,meteohub,2013-01-04 12:17:00,
2013-01-04 07:22:00,26.1,11.7,30.13,SSW,212,7.0,15.0,54,0.00,,,0.00,meteohub,2013-01-04 12:22:00,
2013-01-04 07:27:00,26.1,11.7,30.13,SSW,212,17.0,17.0,54,0.00,,,0.00,meteohub,2013-01-04 12:27:00,
2013-01-04 07:32:00,26.1,11.7,30.13,SSW,212,7.0,17.0,54,0.00,,,0.00,meteohub,2013-01-04 12:32:00,
2013-01-04 07:37:00,25.9,12.0,30.13,WNW,302,13.0,17.0,55,0.00,,,0.00,meteohub,2013-01-04 12:37:00,
2013-01-04 07:42:00,26.1,12.2,30.13,WNW,302,6.0,17.0,55,0.00,,,0.00,meteohub,2013-01-04 12:42:00,
2013-01-04 07:52:00,26.1,12.2,30.13,SSE,168,9.0,17.0,55,0.00,,,0.00,meteohub,2013-01-04 12:52:00,
2013-01-04 07:57:00,25.9,12.0,30.13,West,280,10.0,16.0,55,0.00,,,0.00,meteohub,2013-01-04 12:57:00,
2013-01-04 08:02:00,25.9,12.0,30.13,SSE,168,4.0,16.0,55,0.00,,,0.00,meteohub,2013-01-04 13:02:00,
2013-01-04 08:12:00,25.9,12.0,30.13,SSW,212,15.0,15.0,55,0.00,,,0.00,meteohub,2013-01-04 13:12:00,
2013-01-04 08:17:00,25.9,12.0,30.13,WSW,258,12.0,20.0,55,0.00,,,0.00,meteohub,2013-01-04 13:17:00,
2013-01-04 08:22:00,26.1,12.2,30.13,West,280,13.0,20.0,55,0.00,,,0.00,meteohub,2013-01-04 13:22:00,
2013-01-04 08:27:00,26.1,12.2,30.13,SSE,168,6.0,20.0,55,0.00,,,0.00,meteohub,2013-01-04 13:27:00,
2013-01-04 08:42:00,26.1,12.2,30.16,SSW,212,7.0,13.0,55,0.00,,,0.00,meteohub,2013-01-04 13:42:00,
2013-01-04 08:47:00,26.2,12.4,30.16,West,280,6.0,17.0,55,0.00,,,0.00,meteohub,2013-01-04 13:47:00,
2013-01-04 08:52:00,26.2,12.4,30.16,SW,235,20.0,20.0,55,0.00,,,0.00,meteohub,2013-01-04 13:52:00,
2013-01-04 08:57:00,26.2,12.4,30.16,SSW,212,13.0,20.0,55,0.00,,,0.00,meteohub,2013-01-04 13:57:00,
2013-01-04 09:02:00,26.2,12.4,30.16,WSW,258,11.0,20.0,55,0.00,,,0.00,meteohub,2013-01-04 14:02:00,
2013-01-04 09:07:00,26.2,12.4,30.16,WSW,258,15.0,20.0,55,0.00,,,0.00,meteohub,2013-01-04 14:07:00,
2013-01-04 09:12:00,26.4,12.4,30.13,ENE,78,3.0,17.0,55,0.00,,,0.00,meteohub,2013-01-04 14:12:00,
2013-01-04 09:17:00,26.4,12.4,30.13,NNW,348,9.0,17.0,55,0.00,,,0.00,meteohub,2013-01-04 14:17:00,
2013-01-04 09:22:00,26.4,12.4,30.13,West,280,12.0,20.0,55,0.00,,,0.00,meteohub,2013-01-04 14:22:00,
2013-01-04 09:27:00,26.6,12.6,30.16,SE,145,6.0,25.0,55,0.00,,,0.00,meteohub,2013-01-04 14:27:00,
2013-01-04 09:32:00,26.6,12.6,30.16,SSW,212,7.0,25.0,55,0.00,,,0.00,meteohub,2013-01-04 14:32:00,
2013-01-04 09:37:00,26.8,12.7,30.16,SW,235,13.0,25.0,55,0.00,,,0.00,meteohub,2013-01-04 14:37:00,
2013-01-04 09:42:00,27.0,12.9,30.16,WSW,258,20.0,25.0,55,0.00,,,0.00,meteohub,2013-01-04 14:42:00,
2013-01-04 09:47:00,27.0,12.9,30.16,West,280,8.0,25.0,55,0.00,,,0.00,meteohub,2013-01-04 14:47:00,
2013-01-04 09:52:00,27.1,13.1,30.16,NNE,32,6.0,20.0,55,0.00,,,0.00,meteohub,2013-01-04 14:52:00,
2013-01-04 09:57:00,27.1,13.1,30.16,NNW,348,5.0,20.0,55,0.00,,,0.00,meteohub,2013-01-04 14:57:00,
2013-01-04 10:07:00,27.5,13.1,30.16,SSW,212,7.0,16.0,54,0.00,,,0.00,meteohub,2013-01-04 15:07:00,
2013-01-04 10:12:00,27.7,13.3,30.16,North,10,8.0,16.0,54,0.00,,,0.00,meteohub,2013-01-04 15:12:00,
2013-01-04 10:17:00,27.9,13.5,30.16,SSW,212,4.0,16.0,54,0.00,,,0.00,meteohub,2013-01-04 15:17:00,
2013-01-04 10:22:00,27.9,13.5,30.16,WSW,258,17.0,17.0,54,0.00,,,0.00,meteohub,2013-01-04 15:22:00,
2013-01-04 10:27:00,27.9,13.5,30.16,SSW,212,14.0,17.0,54,0.00,,,0.00,meteohub,2013-01-04 15:27:00,
2013-01-04 10:32:00,27.9,13.5,30.16,West,280,8.0,25.0,54,0.00,,,0.00,meteohub,2013-01-04 15:32:00,
2013-01-04 10:37:00,27.9,13.5,30.16,WNW,302,12.0,28.0,54,0.00,,,0.00,meteohub,2013-01-04 15:37:00,
2013-01-04 10:42:00,28.0,13.6,30.16,WNW,302,7.0,28.0,54,0.00,,,0.00,meteohub,2013-01-04 15:42:00,
2013-01-04 10:47:00,28.0,13.6,30.16,East,100,7.0,21.0,54,0.00,,,0.00,meteohub,2013-01-04 15:47:00,
2013-01-04 10:52:00,28.2,13.8,30.16,SSW,212,5.0,21.0,54,0.00,,,0.00,meteohub,2013-01-04 15:52:00,
2013-01-04 10:57:00,28.2,13.3,30.19,ENE,78,24.0,24.0,53,0.00,,,0.00,meteohub,2013-01-04 15:57:00,
2013-01-04 11:02:00,28.0,13.1,30.19,SSW,212,13.0,24.0,53,0.00,,,0.00,meteohub,2013-01-04 16:02:00,
2013-01-04 11:07:00,28.2,13.8,30.19,South,190,7.0,24.0,54,0.00,,,0.00,meteohub,2013-01-04 16:07:00,
2013-01-04 11:12:00,28.2,13.3,30.16,SSW,212,9.0,24.0,53,0.00,,,0.00,meteohub,2013-01-04 16:12:00,
2013-01-04 11:17:00,28.2,13.3,30.16,ESE,122,15.0,31.0,53,0.00,,,0.00,meteohub,2013-01-04 16:17:00,
2013-01-04 11:22:00,28.2,13.3,30.16,SSE,168,11.0,31.0,53,0.00,,,0.00,meteohub,2013-01-04 16:22:00,
2013-01-04 11:27:00,28.4,13.5,30.16,SSE,168,7.0,29.0,53,0.00,,,0.00,meteohub,2013-01-04 16:27:00,
2013-01-04 11:32:00,28.4,13.5,30.16,SW,235,4.0,29.0,53,0.00,,,0.00,meteohub,2013-01-04 16:32:00,
2013-01-04 11:42:00,28.4,13.5,30.13,SW,235,10.0,17.0,53,0.00,,,0.00,meteohub,2013-01-04 16:42:00,
2013-01-04 11:47:00,28.6,13.6,30.13,SW,235,8.0,17.0,53,0.00,,,0.00,meteohub,2013-01-04 16:47:00,
2013-01-04 11:52:00,28.6,13.6,30.13,SSE,168,5.0,17.0,53,0.00,,,0.00,meteohub,2013-01-04 16:52:00,
2013-01-04 11:57:00,28.8,13.8,30.13,SSW,212,6.0,17.0,53,0.00,,,0.00,meteohub,2013-01-04 16:57:00,
2013-01-04 12:02:00,28.8,13.8,30.13,SSW,212,11.0,18.0,53,0.00,,,0.00,meteohub,2013-01-04 17:02:00,
2013-01-04 12:07:00,28.9,14.0,30.13,East,100,6.0,21.0,53,0.00,,,0.00,meteohub,2013-01-04 17:07:00,
2013-01-04 12:12:00,29.3,14.4,30.13,SW,235,11.0,21.0,53,0.00,,,0.00,meteohub,2013-01-04 17:12:00,
2013-01-04 12:17:00,29.3,14.4,30.13,WNW,302,7.0,21.0,53,0.00,,,0.00,meteohub,2013-01-04 17:17:00,
2013-01-04 12:22:00,29.3,14.4,30.13,WSW,258,9.0,20.0,53,0.00,,,0.00,meteohub,2013-01-04 17:22:00,
2013-01-04 12:27:00,29.5,14.0,30.10,WSW,258,11.0,20.0,52,0.00,,,0.00,meteohub,2013-01-04 17:27:00,
2013-01-04 12:32:00,29.8,14.4,30.10,WSW,258,5.0,18.0,52,0.00,,,0.00,meteohub,2013-01-04 17:32:00,
2013-01-04 12:37:00,29.5,14.0,30.10,South,190,6.0,17.0,52,0.00,,,0.00,meteohub,2013-01-04 17:37:00,
2013-01-04 12:42:00,29.8,14.4,30.10,SSE,168,15.0,20.0,52,0.00,,,0.00,meteohub,2013-01-04 17:42:00,
2013-01-04 12:47:00,29.8,14.4,30.10,North,10,7.0,20.0,52,0.00,,,0.00,meteohub,2013-01-04 17:47:00,
2013-01-04 12:52:00,30.4,14.9,30.10,SSW,212,10.0,20.0,52,0.00,,,0.00,meteohub,2013-01-04 17:52:00,
2013-01-04 12:57:00,30.2,14.7,30.10,SW,235,8.0,26.0,52,0.00,,,0.00,meteohub,2013-01-04 17:57:00,
2013-01-04 13:02:00,30.2,14.7,30.10,West,280,20.0,26.0,52,0.00,,,0.00,meteohub,2013-01-04 18:02:00,
2013-01-04 13:07:00,30.2,14.7,30.10,SSW,212,15.0,20.0,52,0.00,,,0.00,meteohub,2013-01-04 18:07:00,
2013-01-04 13:12:00,30.2,14.4,30.10,SSW,212,13.0,22.0,51,0.00,,,0.00,meteohub,2013-01-04 18:12:00,
2013-01-04 13:17:00,30.2,14.4,30.10,SSW,212,7.0,22.0,51,0.00,,,0.00,meteohub,2013-01-04 18:17:00,
2013-01-04 13:22:00,30.4,14.4,30.10,SW,235,5.0,24.0,51,0.00,,,0.00,meteohub,2013-01-04 18:22:00,
2013-01-04 13:27:00,30.6,14.5,30.07,NNE,32,18.0,24.0,51,0.00,,,0.00,meteohub,2013-01-04 18:27:00,
2013-01-04 13:32:00,30.4,14.4,30.07,West,280,3.0,18.0,51,0.00,,,0.00,meteohub,2013-01-04 18:32:00,
2013-01-04 13:37:00,30.7,14.7,30.07,SSW,212,7.0,24.0,51,0.00,,,0.00,meteohub,2013-01-04 18:37:00,
2013-01-04 13:42:00,30.9,14.9,30.10,WSW,258,8.0,24.0,51,0.00,,,0.00,meteohub,2013-01-04 18:42:00,
2013-01-04 13:47:00,31.1,15.1,30.10,SSW,212,11.0,24.0,51,0.00,,,0.00,meteohub,2013-01-04 18:47:00,
2013-01-04 13:52:00,31.8,15.8,30.10,WSW,258,12.0,21.0,51,0.00,,,0.00,meteohub,2013-01-04 18:52:00,
2013-01-04 13:57:00,32.2,16.2,30.07,SSW,212,11.0,16.0,51,0.00,,,0.00,meteohub,2013-01-04 18:57:00,
2013-01-04 14:02:00,32.5,16.0,30.07,WNW,302,14.0,31.0,50,0.00,,,0.00,meteohub,2013-01-04 19:02:00,
2013-01-04 14:07:00,32.4,15.8,30.07,North,10,12.0,31.0,50,0.00,,,0.00,meteohub,2013-01-04 19:07:00,
2013-01-04 14:12:00,32.4,15.4,30.10,NW,325,5.0,31.0,49,0.00,,,0.00,meteohub,2013-01-04 19:12:00,
2013-01-04 14:17:00,32.5,15.6,30.10,South,190,11.0,21.0,49,0.00,,,0.00,meteohub,2013-01-04 19:17:00,
2013-01-04 14:22:00,32.4,15.4,30.10,South,190,15.0,21.0,49,0.00,,,0.00,meteohub,2013-01-04 19:22:00,
2013-01-04 14:27:00,32.4,15.4,30.10,NW,325,8.0,21.0,49,0.00,,,0.00,meteohub,2013-01-04 19:27:00,
2013-01-04 14:32:00,32.2,14.7,30.10,SW,235,6.0,21.0,48,0.00,,,0.00,meteohub,2013-01-04 19:32:00,
2013-01-04 14:37:00,32.4,15.4,30.10,SW,235,7.0,21.0,49,0.00,,,0.00,meteohub,2013-01-04 19:37:00,
2013-01-04 14:42:00,32.0,14.5,30.10,WNW,302,21.0,21.0,48,0.00,,,0.00,meteohub,2013-01-04 19:42:00,
2013-01-04 14:47:00,31.6,14.2,30.10,WNW,302,12.0,35.0,48,0.00,,,0.00,meteohub,2013-01-04 19:47:00,
2013-01-04 14:52:00,32.0,15.1,30.10,North,10,17.0,35.0,49,0.00,,,0.00,meteohub,2013-01-04 19:52:00,
2013-01-04 14:57:00,31.8,14.9,30.07,NE,55,9.0,35.0,49,0.00,,,0.00,meteohub,2013-01-04 19:57:00,
2013-01-04 15:02:00,31.6,14.2,30.07,NNE,32,9.0,24.0,48,0.00,,,0.00,meteohub,2013-01-04 20:02:00,
2013-01-04 15:07:00,31.6,14.7,30.07,WSW,258,16.0,17.0,49,0.00,,,0.00,meteohub,2013-01-04 20:07:00,
2013-01-04 15:12:00,31.6,14.2,30.10,South,190,10.0,20.0,48,0.00,,,0.00,meteohub,2013-01-04 20:12:00,
2013-01-04 15:17:00,31.5,14.0,30.10,ESE,122,19.0,34.0,48,0.00,,,0.00,meteohub,2013-01-04 20:17:00,
2013-01-04 15:27:00,31.3,13.8,30.10,WNW,302,10.0,34.0,48,0.00,,,0.00,meteohub,2013-01-04 20:27:00,
2013-01-04 15:32:00,31.3,13.8,30.10,SSW,212,15.0,19.0,48,0.00,,,0.00,meteohub,2013-01-04 20:32:00,
2013-01-04 15:37:00,30.9,13.6,30.10,WSW,258,11.0,22.0,48,0.00,,,0.00,meteohub,2013-01-04 20:37:00,
2013-01-04 15:42:00,30.9,13.6,30.13,SSE,168,7.0,22.0,48,0.00,,,0.00,meteohub,2013-01-04 20:42:00,
2013-01-04 15:47:00,30.7,13.8,30.13,NE,55,11.0,22.0,49,0.00,,,0.00,meteohub,2013-01-04 20:47:00,
2013-01-04 15:52:00,30.6,13.6,30.13,SSW,212,11.0,21.0,49,0.00,,,0.00,meteohub,2013-01-04 20:52:00,
2013-01-04 15:57:00,30.6,13.6,30.10,South,190,10.0,20.0,49,0.00,,,0.00,meteohub,2013-01-04 20:57:00,
2013-01-04 16:02:00,30.4,13.5,30.10,SSW,212,8.0,24.0,49,0.00,,,0.00,meteohub,2013-01-04 21:02:00,
2013-01-04 16:07:00,30.7,14.4,30.10,West,280,6.0,24.0,50,0.00,,,0.00,meteohub,2013-01-04 21:07:00,
2013-01-04 16:12:00,30.4,13.5,30.10,WNW,302,9.0,24.0,49,0.00,,,0.00,meteohub,2013-01-04 21:12:00,
2013-01-04 16:17:00,30.6,13.6,30.10,SSE,168,8.0,18.0,49,0.00,,,0.00,meteohub,2013-01-04 21:17:00,
2013-01-04 16:22:00,30.4,14.0,30.10,SSW,212,13.0,13.0,50,0.00,,,0.00,meteohub,2013-01-04 21:22:00,
2013-01-04 16:27:00,30.2,13.8,30.07,South,190,6.0,13.0,50,0.00,,,0.00,meteohub,2013-01-04 21:27:00,
2013-01-04 16:32:00,30.4,14.0,30.07,SSW,212,6.0,16.0,50,0.00,,,0.00,meteohub,2013-01-04 21:32:00,
2013-01-04 16:37:00,30.0,13.6,30.07,WNW,302,12.0,16.0,50,0.00,,,0.00,meteohub,2013-01-04 21:37:00,
2013-01-04 16:42:00,30.0,13.6,30.07,SE,145,8.0,16.0,50,0.00,,,0.00,meteohub,2013-01-04 21:42:00,
2013-01-04 16:47:00,29.8,13.5,30.07,East,100,8.0,26.0,50,0.00,,,0.00,meteohub,2013-01-04 21:47:00,
2013-01-04 16:52:00,29.8,13.5,30.07,NNW,348,9.0,26.0,50,0.00,,,0.00,meteohub,2013-01-04 21:52:00,
2013-01-04 16:57:00,29.7,13.3,30.10,West,280,8.0,24.0,50,0.00,,,0.00,meteohub,2013-01-04 21:57:00,
2013-01-04 17:02:00,29.5,13.1,30.10,SW,235,11.0,27.0,50,0.00,,,0.00,meteohub,2013-01-04 22:02:00,
2013-01-04 17:07:00,29.5,13.1,30.10,WNW,302,11.0,27.0,50,0.00,,,0.00,meteohub,2013-01-04 22:07:00,
2013-01-04 17:12:00,29.5,13.1,30.10,WNW,302,6.0,27.0,50,0.00,,,0.00,meteohub,2013-01-04 22:12:00,
2013-01-04 17:17:00,29.5,13.1,30.10,NNW,348,15.0,22.0,50,0.00,,,0.00,meteohub,2013-01-04 22:17:00,
2013-01-04 17:22:00,29.3,12.9,30.10,WNW,302,9.0,22.0,50,0.00,,,0.00,meteohub,2013-01-04 22:22:00,
2013-01-04 17:27:00,29.1,13.3,30.13,NNW,348,13.0,31.0,51,0.00,,,0.00,meteohub,2013-01-04 22:27:00,
2013-01-04 17:32:00,29.3,13.5,30.13,NNW,348,8.0,31.0,51,0.00,,,0.00,meteohub,2013-01-04 22:32:00,
2013-01-04 17:37:00,29.1,13.3,30.13,SSW,212,13.0,31.0,51,0.00,,,0.00,meteohub,2013-01-04 22:37:00,
2013-01-04 17:42:00,29.1,13.3,30.13,West,280,7.0,16.0,51,0.00,,,0.00,meteohub,2013-01-04 22:42:00,
2013-01-04 17:47:00,28.9,13.1,30.13,SSW,212,4.0,16.0,51,0.00,,,0.00,meteohub,2013-01-04 22:47:00,
2013-01-04 17:52:00,29.1,13.3,30.13,SW,235,12.0,19.0,51,0.00,,,0.00,meteohub,2013-01-04 22:52:00,
2013-01-04 17:57:00,29.1,13.3,30.13,WNW,302,5.0,19.0,51,0.00,,,0.00,meteohub,2013-01-04 22:57:00,
2013-01-04 18:02:00,29.1,13.3,30.13,NNW,348,9.0,15.0,51,0.00,,,0.00,meteohub,2013-01-04 23:02:00,
2013-01-04 18:07:00,29.1,13.6,30.13,WNW,302,15.0,26.0,52,0.00,,,0.00,meteohub,2013-01-04 23:07:00,
2013-01-04 18:12:00,29.3,13.8,30.16,SW,235,7.0,26.0,52,0.00,,,0.00,meteohub,2013-01-04 23:12:00,
2013-01-04 18:17:00,29.3,13.8,30.16,NNE,32,6.0,26.0,52,0.00,,,0.00,meteohub,2013-01-04 23:17:00,
2013-01-04 18:22:00,29.3,13.8,30.16,SSE,168,8.0,29.0,52,0.00,,,0.00,meteohub,2013-01-04 23:22:00,
2013-01-04 18:27:00,29.3,13.8,30.16,SSW,212,6.0,29.0,52,0.00,,,0.00,meteohub,2013-01-04 23:27:00,
2013-01-04 18:32:00,29.3,13.8,30.16,South,190,13.0,29.0,52,0.00,,,0.00,meteohub,2013-01-04 23:32:00,
2013-01-04 18:37:00,29.3,13.8,30.16,East,100,5.0,20.0,52,0.00,,,0.00,meteohub,2013-01-04 23:37:00,
2013-01-04 18:42:00,29.1,14.2,30.16,SW,235,8.0,15.0,53,0.00,,,0.00,meteohub,2013-01-04 23:42:00,
2013-01-04 18:47:00,29.3,14.4,30.16,SSW,212,17.0,17.0,53,0.00,,,0.00,meteohub,2013-01-04 23:47:00,
2013-01-04 18:52:00,29.3,14.4,30.16,SW,235,8.0,21.0,53,0.00,,,0.00,meteohub,2013-01-04 23:52:00,
2013-01-04 18:57:00,29.3,14.4,30.16,SSW,212,7.0,22.0,53,0.00,,,0.00,meteohub,2013-01-04 23:57:00,
2013-01-04 19:02:00,29.5,14.5,30.16,SSE,168,22.0,31.0,53,0.00,,,0.00,meteohub,2013-01-05 00:02:00,
2013-01-04 19:07:00,29.5,14.5,30.16,SSW,212,16.0,31.0,53,0.00,,,0.00,meteohub,2013-01-05 00:07:00,
2013-01-04 19:12:00,29.5,14.5,30.16,West,280,8.0,31.0,53,0.00,,,0.00,meteohub,2013-01-05 00:12:00,
2013-01-04 19:17:00,29.5,14.5,30.16,SSE,168,7.0,22.0,53,0.00,,,0.00,meteohub,2013-01-05 00:17:00,
2013-01-04 19:22:00,29.5,14.5,30.16,WSW,258,6.0,21.0,53,0.00,,,0.00,meteohub,2013-01-05 00:22:00,
2013-01-04 19:27:00,29.5,14.5,30.16,ENE,78,5.0,25.0,53,0.00,,,0.00,meteohub,2013-01-05 00:27:00,
2013-01-04 19:32:00,29.5,14.5,30.16,West,280,8.0,25.0,53,0.00,,,0.00,meteohub,2013-01-05 00:32:00,
2013-01-04 19:37:00,29.5,14.5,30.16,WSW,258,10.0,25.0,53,0.00,,,0.00,meteohub,2013-01-05 00:37:00,
2013-01-04 19:42:00,29.5,14.5,30.19,South,190,13.0,25.0,53,0.00,,,0.00,meteohub,2013-01-05 00:42:00,
2013-01-04 19:47:00,29.5,14.5,30.19,SSE,168,13.0,25.0,53,0.00,,,0.00,meteohub,2013-01-05 00:47:00,
2013-01-04 19:52:00,29.5,14.5,30.19,SSW,212,5.0,25.0,53,0.00,,,0.00,meteohub,2013-01-05 00:52:00,
2013-01-04 19:57:00,29.5,14.5,30.16,SSW,212,11.0,24.0,53,0.00,,,0.00,meteohub,2013-01-05 00:57:00,
2013-01-04 20:07:00,29.3,14.4,30.16,South,190,4.0,22.0,53,0.00,,,0.00,meteohub,2013-01-05 01:07:00,
2013-01-04 20:12:00,29.3,14.4,30.16,WSW,258,11.0,26.0,53,0.00,,,0.00,meteohub,2013-01-05 01:12:00,
2013-01-04 20:17:00,29.1,14.2,30.16,SW,235,4.0,26.0,53,0.00,,,0.00,meteohub,2013-01-05 01:17:00,
2013-01-04 20:22:00,29.1,14.2,30.16,WNW,302,11.0,19.0,53,0.00,,,0.00,meteohub,2013-01-05 01:22:00,
2013-01-04 20:27:00,29.1,14.2,30.19,West,280,4.0,13.0,53,0.00,,,0.00,meteohub,2013-01-05 01:27:00,
2013-01-04 20:32:00,29.1,14.2,30.19,NNE,32,4.0,21.0,53,0.00,,,0.00,meteohub,2013-01-05 01:32:00,
2013-01-04 20:37:00,29.1,14.2,30.19,NW,325,10.0,21.0,53,0.00,,,0.00,meteohub,2013-01-05 01:37:00,
2013-01-04 20:42:00,29.1,14.2,30.16,South,190,5.0,16.0,53,0.00,,,0.00,meteohub,2013-01-05 01:42:00,
2013-01-04 20:47:00,28.9,14.4,30.16,NNW,348,6.0,16.0,54,0.00,,,0.00,meteohub,2013-01-05 01:47:00,
2013-01-04 20:52:00,29.1,14.2,30.16,West,280,12.0,16.0,53,0.00,,,0.00,meteohub,2013-01-05 01:52:00,
2013-01-04 20:57:00,29.3,14.4,30.19,WNW,302,9.0,20.0,53,0.00,,,0.00,meteohub,2013-01-05 01:57:00,
2013-01-04 21:02:00,29.1,14.5,30.19,NNW,348,16.0,20.0,54,0.00,,,0.00,meteohub,2013-01-05 02:02:00,
2013-01-04 21:07:00,28.9,14.4,30.19,SSE,168,6.0,21.0,54,0.00,,,0.00,meteohub,2013-01-05 02:07:00,
2013-01-04 21:12:00,29.1,14.5,30.16,West,280,8.0,21.0,54,0.00,,,0.00,meteohub,2013-01-05 02:12:00,
2013-01-04 21:17:00,28.9,14.4,30.16,NNW,348,8.0,21.0,54,0.00,,,0.00,meteohub,2013-01-05 02:17:00,
2013-01-04 21:22:00,28.8,14.2,30.16,SSW,212,13.0,22.0,54,0.00,,,0.00,meteohub,2013-01-05 02:22:00,
2013-01-04 21:27:00,28.8,14.2,30.16,SW,235,7.0,22.0,54,0.00,,,0.00,meteohub,2013-01-05 02:27:00,
2013-01-04 21:32:00,28.9,14.4,30.16,SW,235,7.0,22.0,54,0.00,,,0.00,meteohub,2013-01-05 02:32:00,
2013-01-04 21:37:00,28.8,14.2,30.16,WNW,302,5.0,15.0,54,0.00,,,0.00,meteohub,2013-01-05 02:37:00,
2013-01-04 21:42:00,28.9,14.4,30.16,WSW,258,15.0,17.0,54,0.00,,,0.00,meteohub,2013-01-05 02:42:00,
2013-01-04 21:47:00,28.9,14.4,30.16,South,190,5.0,22.0,54,0.00,,,0.00,meteohub,2013-01-05 02:47:00,
2013-01-04 21:52:00,28.9,14.4,30.16,SE,145,18.0,22.0,54,0.00,,,0.00,meteohub,2013-01-05 02:52:00,
2013-01-04 21:57:00,28.9,14.4,30.16,WNW,302,12.0,22.0,54,0.00,,,0.00,meteohub,2013-01-05 02:57:00,
2013-01-04 22:02:00,29.1,14.2,30.16,SSE,168,9.0,32.0,53,0.00,,,0.00,meteohub,2013-01-05 03:02:00,
2013-01-04 22:07:00,29.1,14.2,30.16,WNW,302,20.0,32.0,53,0.00,,,0.00,meteohub,2013-01-05 03:07:00,
2013-01-04 22:12:00,28.9,14.0,30.16,SSE,168,8.0,20.0,53,0.00,,,0.00,meteohub,2013-01-05 03:12:00,
2013-01-04 22:17:00,28.8,13.8,30.16,SSW,212,6.0,20.0,53,0.00,,,0.00,meteohub,2013-01-05 03:17:00,
2013-01-04 22:22:00,28.8,13.8,30.16,SSW,212,15.0,20.0,53,0.00,,,0.00,meteohub,2013-01-05 03:22:00,
2013-01-04 22:27:00,28.8,13.8,30.16,South,190,11.0,20.0,53,0.00,,,0.00,meteohub,2013-01-05 03:27:00,
2013-01-04 22:32:00,28.6,13.6,30.16,SSE,168,5.0,20.0,53,0.00,,,0.00,meteohub,2013-01-05 03:32:00,
2013-01-04 22:37:00,28.6,13.6,30.16,West,280,6.0,17.0,53,0.00,,,0.00,meteohub,2013-01-05 03:37:00,
2013-01-04 22:42:00,28.6,13.6,30.16,SSW,212,4.0,17.0,53,0.00,,,0.00,meteohub,2013-01-05 03:42:00,
2013-01-04 22:47:00,28.6,13.6,30.16,NNW,348,10.0,17.0,53,0.00,,,0.00,meteohub,2013-01-05 03:47:00,
2013-01-04 22:52:00,28.6,13.6,30.16,WSW,258,0.0,17.0,53,0.00,,,0.00,meteohub,2013-01-05 03:52:00,
2013-01-04 22:57:00,28.6,13.6,30.16,WSW,258,8.0,11.0,53,0.00,,,0.00,meteohub,2013-01-05 03:57:00,
2013-01-04 23:02:00,28.6,13.6,30.16,SSW,212,9.0,15.0,53,0.00,,,0.00,meteohub,2013-01-05 04:02:00,
2013-01-04 23:07:00,28.4,13.8,30.16,NNW,348,9.0,15.0,54,0.00,,,0.00,meteohub,2013-01-05 04:07:00,
2013-01-04 23:12:00,28.4,13.8,30.16,NNW,348,11.0,12.0,54,0.00,,,0.00,meteohub,2013-01-05 04:12:00,
2013-01-04 23:17:00,28.2,13.8,30.16,South,190,4.0,13.0,54,0.00,,,0.00,meteohub,2013-01-05 04:17:00,
2013-01-04 23:22:00,28.2,13.8,30.16,South,190,3.0,13.0,54,0.00,,,0.00,meteohub,2013-01-05 04:22:00,
2013-01-04 23:27:00,28.4,13.8,30.16,WSW,258,11.0,13.0,54,0.00,,,0.00,meteohub,2013-01-05 04:27:00,
2013-01-04 23:32:00,28.2,13.8,30.16,SW,235,3.0,17.0,54,0.00,,,0.00,meteohub,2013-01-05 04:32:00,
2013-01-04 23:37:00,28.2,13.8,30.16,SE,145,11.0,17.0,54,0.00,,,0.00,meteohub,2013-01-05 04:37:00,
2013-01-04 23:42:00,28.0,14.0,30.19,South,190,8.0,17.0,55,0.00,,,0.00,meteohub,2013-01-05 04:42:00,
2013-01-04 23:47:00,28.0,14.0,30.19,SW,235,12.0,15.0,55,0.00,,,0.00,meteohub,2013-01-05 04:47:00,
2013-01-04 23:52:00,27.9,13.8,30.19,North,10,11.0,15.0,55,0.00,,,0.00,meteohub,2013-01-05 04:52:00,
2013-01-04 23:57:00,27.9,13.8,30.19,West,280,5.0,18.0,55,0.00,,,0.00,meteohub,2013-01-05 04:57:00,